Vertical_Velocity
17 10 2 1 -0 -1 3 -1 2 0 -3 3 1 1 -0 -0 1 -0 1 1 -1 -1 -1 -2 -1 -1 -0
9 -7 -2 -6 7 1 1 -0 3 -1 -2 3 -0 3 3 -2 0 0 0 -0 1 -2 -0 -1 -1 -1 -0
-8 12 18 3 2 1 4 2 4 6 -1 0 0 4 4 2 -2 -0 1 3 -2 -1 -0 -0 0 -1 -1
3 9 24 3 -4 -2 1 -0 -1 0 -0 1 3 3 1 -0 -4 -1 2 2 -2 -1 -1 0 -0 -1 -1
5 1 -2 -15 -6 -8 15 2 2 1 2 -2 -4 1 -2 -3 -2 -2 -4 1 0 -1 -1 -2 -0 -1 -0
30 1 2 -6 4 -1 4 -12 -7 3 -0 -4 -5 -4 1 -3 3 -3 -1 -0 1 -2 0 -1 -2 -2 0
8 -6 7 -0 10 -4 -2 5 -14 -6 5 -4 -1 -2 2 0 1 1 -0 -1 2 -1 1 -1 -2 -2 -1
-8 15 -3 3 7 13 9 26 26 8 2 -5 9 -0 0 1 0 1 0 -1 2 -2 -1 -0 -1 -1 -2
-2 15 14 -3 11 10 -8 22 -2 -7 -1 -0 4 -2 0 3 4 -1 -3 -3 -0 0 -2 0 -1 -0 -1
5 4 13 11 3 -5 -0 -2 6 9 -0 -2 3 -3 -8 -6 -1 2 -4 -3 -2 -2 -2 -1 -1 -0 -2
4 2 10 5 -3 -6 -10 9 6 -1 -4 7 0 1 -1 2 4 -4 -7 -1 -1 -3 -2 -0 -2 2 -2
-1 -12 6 3 -6 -8 -3 1 9 7 1 12 -1 -7 8 2 2 -0 -7 0 -1 0 1 1 -2 -0 -5
-2 0 -1 13 5 8 0 10 9 22 6 -5 7 2 3 -0 2 -2 2 -5 3 -1 1 0 2 1 1
-2 6 7 9 -1 2 3 -2 3 11 -6 7 6 2 1 -1 0 -3 -1 -6 5 -3 5 -0 -6 -2 -1
0 2 -10 7 7 -3 5 -7 -3 10 -9 -1 6 4 6 4 -8 -2 0 -3 -5 -5 -1 1 -6 -2 1
7 8 1 2 4 5 3 -11 5 3 -7 9 -1 -1 3 -7 -9 -9 -6 2 -2 -0 -5 -6 -6 1 4
1 -1 1 8 13 -1 -8 7 5 5 -2 8 -1 0 -2 -6 1 -4 2 0 2 -0 -2 0 3 3 5
Height
3053 3061 3071 3079 3085 3092 3099 3105 3113 3117 3122 3127 3133 3137 3141 3146 3148 3150 3152 3154 3156 3157 3158 3157 3157 3155 3154
3046 3052 3061 3072 3080 3087 3093 3098 3105 3110 3116 3122 3126 3132 3136 3140 3143 3145 3148 3150 3152 3153 3155 3155 3154 3153 3152
3039 3047 3055 3063 3072 3080 3085 3092 3098 3104 3109 3116 3120 3125 3131 3134 3137 3140 3144 3146 3148 3149 3151 3152 3152 3151 3150
3030 3036 3046 3055 3063 3070 3076 3081 3089 3097 3103 3108 3113 3118 3125 3128 3133 3135 3139 3141 3144 3145 3147 3149 3149 3149 3147
3021 3028 3038 3043 3052 3060 3068 3076 3083 3089 3094 3099 3106 3110 3115 3120 3126 3130 3134 3137 3139 3142 3143 3145 3145 3144 3145
3009 3018 3027 3038 3046 3051 3059 3066 3071 3077 3085 3090 3099 3103 3108 3113 3119 3124 3128 3131 3133 3137 3138 3140 3140 3141 3141
2997 3005 3017 3027 3035 3042 3047 3057 3065 3074 3080 3085 3089 3093 3099 3107 3112 3116 3121 3125 3128 3131 3133 3134 3136 3137 3137
2990 2995 3004 3015 3024 3036 3041 3051 3058 3065 3072 3072 3080 3087 3094 3100 3105 3108 3113 3117 3121 3125 3127 3129 3131 3132 3132
2973 2983 2992 3001 3008 3024 3027 3037 3043 3051 3057 3061 3072 3078 3084 3089 3096 3100 3104 3109 3113 3118 3121 3123 3125 3126 3127
2956 2970 2980 2988 2997 3005 3015 3024 3032 3037 3045 3054 3062 3069 3073 3079 3085 3090 3095 3099 3105 3110 3114 3116 3118 3120 3122
2941 2955 2965 2974 2984 2994 3002 3012 3018 3027 3041 3047 3054 3062 3064 3070 3077 3082 3087 3091 3095 3101 3106 3108 3111 3114 3115
2924 2940 2950 2960 2970 2982 2992 3002 3008 3023 3032 3039 3046 3053 3058 3063 3068 3075 3078 3082 3087 3093 3096 3101 3104 3106 3107
2908 2923 2939 2950 2961 2972 2982 2992 3004 3010 3017 3024 3032 3042 3046 3053 3058 3065 3069 3073 3079 3084 3088 3092 3097 3099 3100
2892 2907 2924 2935 2946 2957 2965 2976 2987 2994 3005 3014 3021 3029 3035 3041 3047 3055 3058 3062 3070 3075 3080 3083 3087 3090 3093
2875 2890 2908 2920 2930 2941 2950 2962 2970 2982 2992 3000 3009 3019 3024 3029 3036 3043 3048 3052 3059 3064 3068 3073 3077 3082 3086
2858 2873 2891 2905 2916 2925 2935 2945 2957 2968 2979 2987 2999 3005 3010 3015 3025 3032 3038 3043 3048 3054 3058 3063 3069 3074 3078
2842 2858 2875 2887 2901 2910 2919 2931 2944 2957 2966 2978 2987 2993 2998 3005 3019 3026 3030 3035 3040 3043 3050 3057 3061 3066 3071